Location: Unspecified
(0.0000°N, 0.0000°E)
Time: 03:08:56
(UTC+00:00)

N. Korean satellite - Pass Details

Date: 25 May 2017
Orbit: 461 x 513 km, 97.2° (Epoch: 17 December)

Event Time Altitude Azimuth Distance (km) Brightness Sun altitude
Rises 06:52:40 0° 2° (N) 2,558 10.6 13.0°
Reaches altitude 10° 06:54:47 10° 356° (N) 1,669 9.6 13.5°
Drops below altitude 10° 07:01:41 10° 206° (SSW) 1,647 8.9 15.1°
Enters shadow 07:15:57 -31° 190° (S) 7,436 12.2 18.4°
Exits shadow 07:38:41 -76° 160° (SSE) 12,866 13.5 23.6°
Maximum altitude 18:46:40 81° 259° (W) 506 6.7 -11.6°
